Miscellaneous Local Product
Issued by NWS North Platte, NE

Home | Current Version | Previous Version | Graphics & Text | Print | Product List | Glossary On
Versions: 1 2 3 4 5 6 7 8 9 10 11 12 13 14 15 16 17 18 19 20 21 22 23 24 25 26 27 28 29 30 31 32 33 34 35 36 37 38 39 40 41 42 43 44 45 46 47 48 49 50
556
AXUS43 KLBF 240410
MISLBF


WESTERN AND NORTH CENTRAL NEBRASKA HOURLY WEATHER ROUNDUP
NATIONAL WEATHER SERVICE NORTH PLATTE NE
1100 PM CDT THU MAR 23 2017

NOTE: "FAIR" INDICATES FEW OR NO CLOUDS BELOW 12,000 FEET WITH NO
SIGNIFICANT WEATHER AND/OR OBSTRUCTIONS TO VISIBILITY.

NOTE: STATIONS NOT REPORTING VARIABLES SUCH AS SKY/WEATHER OR
PRESSURE ARE PROVIDED BY RAWS AND APRS NETWORKS AND ARE NOT UNDER
NATIONAL WEATHER SERVICE QUALITY CONTROL.

...OBSERVATIONS IN AND NEAR THE EASTERN PANHANDLE OF NEBRASKA...

CITY           SKY/WX    TMP DP  RH WIND       PRES   REMARKS
PINE RIDGE     CLOUDY    45  42  89 VRB5      29.84R
CHADRON        CLOUDY    44  39  82 NE17      29.86R
ALLIANCE       LGT RAIN  44  42  93 N18G29    29.80R
SIDNEY         MOCLDY    46  42  86 N28G40    29.75R
CRESCENT LAKE    N/A     45  43  94 N25G35      N/A
$$

...OBSERVATIONS IN NORTHERN NEBRASKA AND FAR SOUTHERN SOUTH DAKOTA...

CITY           SKY/WX    TMP DP  RH WIND       PRES   REMARKS
WINNER         FOG       48  47  96 NE9       29.77R VSB 1/4
VALENTINE      CLOUDY    51  45  79 N14       29.76R
THEDFORD       CLOUDY    55  43  63 NE14      29.77R
AINSWORTH      CLOUDY    51  50  96 NE14      29.76R
O`NEILL        HVY RAIN  54  53  99 N10       29.72F
ORD            CLOUDY    55  51  86 NE15      29.65R
BROKEN BOW     TSTM      56  31  38 N13G26    29.67R
VALENTINE NWR    N/A     53  42  67 N16G32      N/A
HALSEY           N/A     55  52  89 CALM        N/A
BUTTE            N/A     47  46  97 NE9         N/A
CHAMBERS         N/A     55  54  98 CALM        N/A
EWING            N/A     55  54  96 NE3         N/A
$$

...OBSERVATIONS IN SOUTHWEST NEBRASKA AND FAR NORTHEAST COLORADO...

CITY           SKY/WX    TMP DP  RH WIND       PRES   REMARKS
HOLYOKE        FAIR      55  43  62 N36G41    29.67R
IMPERIAL       MOCLDY    61  50  67 N24G39    29.57R
OGALLALA       CLOUDY    56  42  60 NE20G25   29.73R
NORTH PLATTE   LGT RAIN  55  50  83 NE29G39   29.69F
MCCOOK         CLOUDY    67  47  48 S31G41    29.53F
LEXINGTON      CLOUDY    66  44  45 SE13G31   29.61R
STAPLETON        N/A     54  52  93 CALM        N/A
GOTHENBURG       N/A     61  53  73 NW3         N/A
CALLAWAY         N/A     55  54  98 NE10        N/A
$$

...OBSERVATIONS IN CENTRAL LINCOLN COUNTY AREA...

CITY           SKY/WX    TMP DP  RH WIND       PRES   REMARKS
N.P. AIRPORT   LGT RAIN  55  50  83 NE29G39   29.69F
N.P. DOWNTOWN    N/A     54  53  97 NE17G29     N/A
N.P. SOUTHEAST   N/A     53  51  95 NE10G18     N/A
N.P. HILLCREST   N/A     54  53  96 E26         N/A
$$

...SOME OBSERVATIONS FROM AROUND THE REGION...

CITY           SKY/WX    TMP DP  RH WIND       PRES   REMARKS
DENVER         CLOUDY    47  36  65 N35G46    29.72R
LIMON          CLOUDY    54  34  46 N35G59    29.59S HAZE
ASPEN          CLOUDY    33  32  96 CALM      29.80R
LARAMIE        CLOUDY    36  28  73 N20       29.83R WCI  25
GILLETTE       CLOUDY    40  32  73 N3        29.98R
CHEYENNE       MIX PCPN  37  33  85 N26G38    29.81S WCI  25
SCOTTSBLUFF    LGT RAIN  45  41  86 N18       29.81R
GRAND ISLAND   LGT RAIN  63  55  75 SW28G48   29.63R
OMAHA          CLOUDY    71  49  45 S33G44    29.61F
SIOUX FALLS    CLOUDY    45  40  82 NE8       29.73S
PIERRE         CLOUDY    43  37  79 N10       29.81R
RAPID CITY     MOCLDY    41  38  89 NW24G33   29.84F
BISMARCK       PTCLDY    38  35  89 NW5       29.91R WCI  34
KANSAS CITY    CLOUDY    70  46  42 S21G30    29.79S
HILL CITY      RAIN      58  55  90 SW14G35   29.72R FOG
WICHITA        MOCLDY    72  48  42 S25G33    29.69F
DODGE CITY     MOCLDY    69  45  41 S17       29.64F
OKLAHOMA CITY  PTCLDY    73  45  36 S33G45    29.73S
DALLAS         PTCLDY    75  46  35 S23G38    29.87R
AMARILLO       CLOUDY    54  41  61 SW15      29.71R
$$




USA.gov is the U.S. government's official web portal to all federal, state and local government web resources and services.